{"data":{"norad_id":49091,"intl_designator":"2021-075S","name":"ONEWEB-0302","alt_names":[],"object_type":"PAYLOAD","status":"ACTIVE","operator":null,"country":"UK","launch_date":"2021-08-21","launch_site_code":"TYMSC","launch_vehicle":null,"mission":null,"orbit_class":"UNKNOWN","rcs_meters":null,"size_class":null,"mass_kg":null,"dimensions":null,"purposes":["comms"],"wikipedia_slug":null,"has_3d_model":false,"image_url":null,"decayed_at":null,"tle_current":{"epoch":"2026-05-25T03:03:16.725888Z","epoch_age_seconds":74606,"freshness":"FRESH","line1":"1 49091U 21075S   26145.12727692  .00000148  00000+0  37669-3 0  9998","line2":"2 49091  87.8962 355.2520 0001561  94.3503 265.7803 13.12440813231525","mean_motion":13.12440813,"eccentricity":0.0001561,"inclination_deg":87.8962,"raan_deg":355.252,"arg_perigee_deg":94.3503,"mean_anomaly_deg":265.7803,"bstar":0.00037669,"rev_number":23152,"period_min":109.71923348745,"perigee_km":1212.54663419,"apogee_km":1214.9168156059,"semimajor_km":7591.868724898,"source":"CELESTRAK","updated_at":"2026-05-25T13:38:22.484144Z"}}}